DECAYED

OBJECT A, 55133 (Decayed)

Orbit data source: Space-Track

You're viewing an Uncataloged Satellite

Recently launched and/or uncataloged satellites may have evolving metadata. Metadata may include but not limited to: Owner, Maufacturer, Bus, Motor, and Mission.

OBJECT A, 55133 was a Chinese satellite in LEO that was launched on Mon, 09 Jan 2023 UTC via a GUSHENXING 1 launch vehicle from the Jiuquan Satellite Launch Center, China (JSC). Unknown objects in Earth's orbit typically refer to objects detected orbiting the Earth but have not yet been identified or cataloged. These objects could be anything from previously untracked satellites, spent rocket stages, debris from satellite collisions, or even natural meteoroids temporarily captured by Earth's gravity. This object's orbit decayed before it could be identified.

Not visible in the next 10 days
Identifier
55133, 2023-003A
Orbit
Decayed
Country
Flag of CNCN / PRC
Related business
Flag of CNXiamen Tianwei Technology Co. Ltd. (CN)
Manufacturer
Zhongke Xiguang
Mission
Decayed Amateur Technology
Bus & Motor
XST, Unknown motor
Mass
50 kg wet, ~50 kg dry
Launch date (UTC)
2023-01-09 (3 years ago)
Launch vehicle
GUSHENXING 1
Launch site
Jiuquan Satellite Launch Center, China (JSC)
Object type
Unknown
Shape & HBR
Box, 0.8 m
Radar Cross Section
2.000 m², Medium (>0.1 m² and < 1m²)

Expand to show TLE details & history
Last TLE update: 6 months ago

TLE from 6 months ago
0 OBJECT A
1 55133U 23003A   25343.21776167  .06199374  22762-5  16917-2 0  9998
2 55133  97.1380  59.0260 0007564 322.4439  37.6325 16.28068619163168
Epoch: 2025-12-09T05:13Z
TLE epoch observation values (Epoch: 2025-12-09T05:13:34.608Z)
Latitude
-0.00007°
Longitude
-97.5738°
Altitude
197.04 km
Speed
7.79 km/s
True Right ascension
03h 56m 06s
True Declination
0° 00' 00"
Sunlit
Object was in full shadow at epoch
Visualization orbit readout
Latitude
Unknown
Longitude
Unknown
Altitude
Unknown
Speed
Unknown
Apparent Right ascension
Unknown
Apparent Declination
Unknown
Sunlit
N/A
Visualization observer readout
Local Sidereal Time
00:38:30
Azimuth
Unknown
Elevation
Unknown
Doppler factor
Unknown
Orbital elements
Apogee altitude
199.518 km
Perigee altitude
189.575 km
Semi-major axis
6,572.684 km
Eccentricity
0.00076
Inclination
97.138°
RAAN
59.026°
Arg. of periapsis
322.4439°
True anomaly
37.68546°
Mean anomaly
37.6325°
Eccentric anomaly
37.65898°
Mean motion
4.07314 °/min
Orbital period
88.38 mins
BSTAR
0.0016917
Loading maneuver chart data...
Computing Atmospheric mass density...
Loading historical data...
Loading historical data...
Loading historical data...
Loading historical data...
Loading historical data...
Loading historical data...
Loading historical data...
Other satellites on launch #3 in the year 2023 (2023-01-09 UTC)

Documentation

Showing up to 5 results
|